Location: Basses Si�yes
(44.0835°N, 6.2037°E)
Time: 08:23:51
(UTC+00:00)

Cosmos 540 Rocket - Pass Details

Date: 27 February 2020
Orbit: 740 x 754 km, 74.1° (Epoch: 03 April)

Event Time Altitude Azimuth Distance (km) Brightness Sun altitude
Rises 19:25:30 0° 201° (SSW) 3,167 6.8 -23.2°
Reaches altitude 10° 19:27:51 10° 203° (SSW) 2,250 6.0 -23.6°
Maximum altitude 19:32:57 81° 290° (WNW) 760 3.4 -24.5°
Drops below altitude 10° 19:38:07 10° 19° (NNE) 2,275 5.9 -25.4°
Sets 19:40:30 0° 20° (NNE) 3,206 6.7 -25.8°
